Location: Unspecified
(50.7693°N, 0.0000°E)
Time: 20:38:45
(UTC+00:00)

Tiros 1 - Visible Passes

Search period start: 17 June 2019 00:00
Search period end: 27 June 2019 00:00
Orbit: 631 x 664 km, 48.4° (Epoch: 17 June)

Date Brightness Start Highest point End Pass type
(mag) Time Alt. Az. Time Alt. Az. Time Alt. Az.
17 Jun 8.8 00:43:45 17° SSE 00:44:05 17° SE 00:47:03 10° ESE visible
17 Jun 7.5 02:21:22 12° SW 02:25:31 45° SSE 02:29:57 10° E visible
18 Jun 8.1 01:08:09 23° S 01:09:45 29° SSE 01:13:44 10° E visible
18 Jun 7.2 02:46:53 10° WSW 02:51:28 60° S 02:56:01 10° E visible
18 Jun 8.9 23:54:53 15° SE 23:54:53 15° SE 23:56:58 10° ESE visible
19 Jun 7.5 01:32:29 18° SW 01:35:34 43° SSE 01:39:58 10° E visible
20 Jun 8.1 00:19:07 26° SSE 00:19:48 27° SSE 00:23:43 10° E visible
20 Jun 7.2 01:56:55 10° WSW 02:01:29 58° SSE 02:06:03 10° E visible
20 Jun 9.1 23:05:37 13° ESE 23:05:37 13° ESE 23:06:51 10° ESE visible
21 Jun 7.5 00:43:13 23° SW 00:45:35 42° SSE 00:49:59 10° E visible
21 Jun 7.1 02:22:52 10° W 02:27:30 66° S 02:32:06 10° E visible
21 Jun 8.1 23:29:32 26° SSE 23:29:51 26° SSE 23:33:43 10° E visible
22 Jun 7.2 01:07:07 11° WSW 01:11:32 57° SSE 01:16:04 10° E visible
22 Jun 7.1 02:48:55 10° W 02:53:31 63° S 02:58:06 10° ESE visible
22 Jun 9.0 22:15:29 13° ESE 22:15:29 13° ESE 22:16:43 10° ESE visible
22 Jun 7.5 23:53:02 21° SW 23:55:38 40° SSE 00:00:00 10° E visible
23 Jun 7.1 01:32:53 10° WSW 01:37:32 66° S 01:42:08 10° E visible
23 Jun 8.1 22:37:56 19° S 22:39:54 25° SSE 22:43:41 10° E visible
24 Jun 7.1 00:16:57 10° WSW 00:21:33 56° SSE 00:26:06 10° E visible
24 Jun 7.1 01:58:55 10° W 02:03:33 64° S 02:08:08 10° ESE visible
24 Jun 8.8 21:22:10 10° SSE 21:24:21 13° SE 21:26:33 10° ESE visible
24 Jun 7.5 23:01:18 10° SW 23:05:41 39° SSE 23:10:01 10° E visible
25 Jun 7.0 00:42:54 10° WSW 00:47:33 66° S 00:52:09 10° E visible
25 Jun 7.2 02:25:00 10° W 02:29:31 52° SSW 02:34:01 10° ESE visible
25 Jun 8.2 21:46:13 10° SSW 21:49:57 24° SSE 21:53:41 10° E visible
25 Jun 7.2 23:26:59 10° WSW 23:31:34 54° SSE 23:36:07 10° E visible
26 Jun 7.0 01:08:55 10° W 01:13:34 65° S 01:18:10 10° ESE visible
26 Jun 7.7 02:51:08 10° W 02:55:24 36° SSW 02:59:38 10° SE visible
26 Jun 7.6 22:11:22 10° SW 22:15:43 37° SSE 22:20:01 10° E visible
